• In Hungary
  • List of Countries
  • For 7 days
  • Water Temperature
  • Satellite Maps
  • Weather Map
  • News
  • Weather Widgets
  • user-avatar
    Login

    Hourly Weather Rysli

    Today, 20 September, Thursday

    Time Temperature Precipitation Wind Pressure Humidity
    00:00 +15°C° 0 mm 4 mps 751 mmHg 89%
    01:00 +15°C° 0 mm 4 mps 751 mmHg 90%
    02:00 +14°C° 0 mm 4 mps 751 mmHg 92%
    03:00 +14°C° 0 mm 3 mps 751 mmHg 93%
    04:00 +14°C° 0 mm 3 mps 751 mmHg 94%
    05:00 +13°C° 0 mm 3 mps 751 mmHg 95%
    06:00 +13°C° 0 mm 3 mps 751 mmHg 96%
    07:00 +16°C° 0 mm 3 mps 751 mmHg 92%
    08:00 +17°C° 0 mm 3 mps 751 mmHg 87%
    09:00 +19°C° 0 mm 4 mps 751 mmHg 82%
    10:00 +20°C° 0 mm 4 mps 751 mmHg 76%
    11:00 +22°C° 0 mm 5 mps 751 mmHg 69%
    12:00 +25°C° 0 mm 5 mps 751 mmHg 63%
    13:00 +25°C° 0 mm 5 mps 751 mmHg 61%
    14:00 +26°C° 0 mm 5 mps 751 mmHg 59%
    15:00 +26°C° 0 mm 5 mps 750 mmHg 57%
    16:00 +25°C° 0 mm 5 mps 751 mmHg 62%
    17:00 +22°C° 0 mm 4 mps 751 mmHg 67%
    18:00 +21°C° 0 mm 3 mps 751 mmHg 72%
    19:00 +20°C° 0 mm 3 mps 751 mmHg 74%
    20:00 +19°C° 0 mm 4 mps 752 mmHg 76%
    21:00 +18°C° 0 mm 4 mps 752 mmHg 78%
    22:00 +17°C° 0 mm 3 mps 752 mmHg 82%
    23:00 +14°C° 0 mm 3 mps 753 mmHg 87%

    Tomorrow, 21 September, Friday

    Time Temperature Precipitation Wind Pressure Humidity
    00:00 +14°C° 0 mm 2 mps 753 mmHg 91%
    01:00 +14°C° 0 mm 2 mps 753 mmHg 92%
    02:00 +13°C° 0 mm 2 mps 754 mmHg 93%
    03:00 +13°C° 0 mm 2 mps 754 mmHg 94%
    04:00 +13°C° 0 mm 2 mps 754 mmHg 94%
    05:00 +13°C° 0 mm 2 mps 754 mmHg 95%
    06:00 +12°C° 0 mm 2 mps 755 mmHg 95%
    07:00 +14°C° 0 mm 2 mps 755 mmHg 88%
    08:00 +16°C° 0 mm 2 mps 755 mmHg 82%
    09:00 +17°C° 0 mm 2 mps 756 mmHg 75%
    10:00 +19°C° 0 mm 2 mps 756 mmHg 70%
    11:00 +20°C° 0 mm 2 mps 756 mmHg 64%
    12:00 +23°C° 0 mm 2 mps 756 mmHg 59%
    13:00 +23°C° 0 mm 2 mps 756 mmHg 58%
    14:00 +24°C° 0 mm 2 mps 756 mmHg 56%
    15:00 +25°C° 0 mm 2 mps 756 mmHg 54%
    16:00 +23°C° 0 mm 2 mps 756 mmHg 60%
    17:00 +22°C° 0 mm 1 mps 756 mmHg 65%
    18:00 +21°C° 0 mm 1 mps 756 mmHg 70%
    19:00 +20°C° 0 mm 1 mps 756 mmHg 73%
    20:00 +19°C° 0 mm 1 mps 756 mmHg 76%
    21:00 +16°C° 0 mm 0 mps 757 mmHg 78%
    22:00 +18°C° 0 mm 1 mps 757 mmHg 80%
    23:00 +18°C° 0 mm 1 mps 757 mmHg 81%

    Day after tomorrow, 22 September, Saturday

    Time Temperature Precipitation Wind Pressure Humidity
    00:00 +16°C° 0 mm 1 mps 757 mmHg 83%
    01:00 +16°C° 0 mm 1 mps 757 mmHg 84%
    02:00 +16°C° 0 mm 2 mps 757 mmHg 86%
    03:00 +15°C° 0 mm 2 mps 757 mmHg 88%
    04:00 +15°C° 0 mm 2 mps 757 mmHg 89%
    05:00 +15°C° 0 mm 2 mps 757 mmHg 90%
    06:00 +15°C° 0 mm 2 mps 757 mmHg 91%
    07:00 +16°C° 0 mm 2 mps 757 mmHg 85%
    08:00 +18°C° 0 mm 3 mps 757 mmHg 78%
    09:00 +19°C° 0 mm 3 mps 757 mmHg 71%
    10:00 +21°C° 0 mm 3 mps 756 mmHg 66%
    11:00 +22°C° 0 mm 4 mps 756 mmHg 60%
    12:00 +25°C° 0 mm 4 mps 756 mmHg 55%
    13:00 +25°C° 0 mm 4 mps 755 mmHg 54%
    14:00 +25°C° 0 mm 4 mps 755 mmHg 53%
    15:00 +26°C° 0 mm 4 mps 755 mmHg 52%
    16:00 +23°C° 0 mm 4 mps 755 mmHg 57%
    17:00 +22°C° 0 mm 3 mps 754 mmHg 63%
    18:00 +20°C° 0 mm 3 mps 754 mmHg 68%
    19:00 +20°C° 0 mm 3 mps 754 mmHg 70%
    20:00 +19°C° 0 mm 3 mps 754 mmHg 72%
    21:00 +18°C° 0 mm 4 mps 754 mmHg 73%
    22:00 +18°C° 0 mm 4 mps 753 mmHg 73%
    23:00 +18°C° 0 mm 4 mps 753 mmHg 72%

    23 September, Sunday

    Time Temperature Precipitation Wind Pressure Humidity
    00:00 +18°C° 0 mm 4 mps 753 mmHg 72%
    01:00 +17°C° 0 mm 4 mps 752 mmHg 72%
    02:00 +17°C° 0 mm 4 mps 752 mmHg 72%
    03:00 +17°C° 0 mm 4 mps 751 mmHg 72%
    04:00 +17°C° 0 mm 4 mps 751 mmHg 72%
    05:00 +15°C° 0 mm 4 mps 750 mmHg 71%
    06:00 +15°C° 0 mm 5 mps 750 mmHg 71%
    07:00 +16°C° 0 mm 5 mps 749 mmHg 67%
    08:00 +17°C° 0 mm 6 mps 749 mmHg 63%
    09:00 +20°C° 0 mm 6 mps 748 mmHg 59%
    10:00 +21°C° 0 mm 6 mps 748 mmHg 56%
    11:00 +22°C° 0 mm 7 mps 747 mmHg 53%
    12:00 +22°C° 0 mm 7 mps 746 mmHg 50%
    13:00 +22°C° 0 mm 6 mps 746 mmHg 52%
    14:00 +22°C° 0 mm 6 mps 746 mmHg 53%
    15:00 +22°C° 0 mm 5 mps 745 mmHg 54%
    16:00 +20°C° 1 mm 6 mps 745 mmHg 64%
    17:00 +16°C° 1 mm 6 mps 745 mmHg 73%
    18:00 +14°C° 1 mm 7 mps 745 mmHg 83%
    19:00 +13°C° 1.1 mm 6 mps 746 mmHg 84%
    20:00 +10°C° 1.1 mm 6 mps 746 mmHg 86%
    21:00 +8°C° 1.1 mm 5 mps 746 mmHg 87%
    22:00 +9°C° 0.4 mm 5 mps 747 mmHg 87%
    23:00 +9°C° 0.4 mm 5 mps 747 mmHg 87%

    24 September, Monday

    Time Temperature Precipitation Wind Pressure Humidity
    00:00 +10°C° 0.4 mm 4 mps 747 mmHg 86%
    01:00 +10°C° 0 mm 4 mps 748 mmHg 88%
    02:00 +8°C° 0 mm 4 mps 748 mmHg 90%
    03:00 +8°C° 0 mm 4 mps 748 mmHg 92%
    04:00 +8°C° 0 mm 4 mps 748 mmHg 93%
    05:00 +7°C° 0 mm 4 mps 749 mmHg 94%
    06:00 +7°C° 0 mm 4 mps 749 mmHg 95%
    07:00 +8°C° 0 mm 4 mps 749 mmHg 90%
    08:00 +10°C° 0 mm 4 mps 749 mmHg 85%
    09:00 +11°C° 0 mm 4 mps 749 mmHg 80%
    10:00 +12°C° 0 mm 4 mps 749 mmHg 73%
    11:00 +13°C° 0 mm 5 mps 750 mmHg 66%
    12:00 +15°C° 0 mm 5 mps 750 mmHg 59%
    13:00 +15°C° 0 mm 5 mps 750 mmHg 57%
    14:00 +15°C° 0 mm 5 mps 750 mmHg 55%
    15:00 +16°C° 0 mm 5 mps 750 mmHg 54%
    16:00 +15°C° 0 mm 4 mps 750 mmHg 58%
    17:00 +13°C° 0 mm 3 mps 750 mmHg 63%
    18:00 +13°C° 0 mm 2 mps 749 mmHg 67%
    19:00 +13°C° 0 mm 2 mps 749 mmHg 67%
    20:00 +13°C° 0 mm 2 mps 749 mmHg 67%
    21:00 +12°C° 0 mm 3 mps 749 mmHg 66%
    22:00 +12°C° 0 mm 3 mps 748 mmHg 65%
    23:00 +12°C° 0 mm 3 mps 748 mmHg 65%

    25 September, Tuesday

    Time Temperature Precipitation Wind Pressure Humidity
    00:00 +12°C° 0 mm 4 mps 748 mmHg 64%
    01:00 +12°C° 0.1 mm 5 mps 747 mmHg 62%
    02:00 +12°C° 0.1 mm 5 mps 746 mmHg 61%
    03:00 +11°C° 0.1 mm 6 mps 746 mmHg 60%
    04:00 +12°C° 0 mm 7 mps 745 mmHg 56%
    05:00 +12°C° 0 mm 7 mps 744 mmHg 53%
    06:00 +12°C° 0 mm 8 mps 743 mmHg 50%
    07:00 +12°C° 0.4 mm 8 mps 743 mmHg 54%
    08:00 +12°C° 0.4 mm 8 mps 742 mmHg 57%
    09:00 +11°C° 0.4 mm 7 mps 742 mmHg 61%
    10:00 +12°C° 0.4 mm 7 mps 742 mmHg 65%
    11:00 +12°C° 0.4 mm 7 mps 741 mmHg 69%
    12:00 +12°C° 0.4 mm 7 mps 741 mmHg 73%
    13:00 +14°C° 0.2 mm 7 mps 741 mmHg 72%
    14:00 +15°C° 0.2 mm 7 mps 741 mmHg 70%
    15:00 +15°C° 0.2 mm 7 mps 741 mmHg 68%
    16:00 +15°C° 0.1 mm 6 mps 741 mmHg 67%
    17:00 +14°C° 0.1 mm 6 mps 741 mmHg 65%
    18:00 +14°C° 0.1 mm 5 mps 741 mmHg 64%
    19:00 +13°C° 0 mm 5 mps 742 mmHg 65%
    20:00 +12°C° 0 mm 5 mps 742 mmHg 66%
    21:00 +10°C° 0 mm 6 mps 742 mmHg 67%
    22:00 +10°C° 0 mm 6 mps 743 mmHg 69%
    23:00 +10°C° 0 mm 6 mps 744 mmHg 71%
    Show more